Weather History for Wisconsin Rapids, WI

Change the Weather History Date:

Sunday, March 17, 2013

  Actual Average Record
Temperature  
Mean Temperature 16 °F -  
Max Temperature 25 °F 39 °F 81 °F (2012)
Min Temperature 8 °F 19 °F -2 °F (1993)
Degree Days  
Heating Degree Days 48    
Moisture  
Dew Point 6 °F    
Average Humidity 62    
Maximum Humidity 74    
Minimum Humidity 51    
Precipitation  
Precipitation 0.00 in - - ()
Sea Level Pressure  
Sea Level Pressure 30.22 in    
Wind  
Wind Speed 8 mph (East)    
Max Wind Speed 13 mph    
Max Gust Speed 21 mph    
Visibility 10 miles    
Events      
Averages and records for this station are not official NWS values.
T = Trace of Precipitation, MM = Missing Value Source: NWS Daily Summary

Daily Weather History Graph

Daily Weather History Graph

Search for Another Location

Airport:

Trip Planner

Search our weather history database for the weather conditions in past years. The results will help you decide how hot, cold, wet, or windy it might be!

Date:

Astronomy

Mar. 17, 2013 Rise Set
Actual Time 7:07 AM CDT 7:08 PM CDT
Civil Twilight 6:38 AM CDT 7:37 PM CDT
Nautical Twilight 6:04 AM CDT 8:11 PM CDT
Astronomical Twilight 5:30 AM CDT 8:45 PM CDT
Moon 10:07 AM CDT (3/17) 12:28 AM CDT (3/17)
Length of Visible Light 12h 58m
Length of Day
12h 00m
Waxing Crescent, 31% of the Moon is Illuminated
Mar 17
Waxing Crescent
Mar 19
First Quarter
Mar 27
Full
Apr 2
Last Quarter
Apr 10
New

Hourly Weather History & Observations

Time (CDT) Temp. Windchill Dew Point Humidity Pressure Visibility Wind Dir Wind Speed Gust Speed Precip Events Conditions
12:54 AM 14.0 °F 6.5 °F 5.0 °F 67% 30.21 in 10.0 mi WNW 4.6 mph - N/A   Clear
1:54 AM 15.1 °F 7.7 °F 3.9 °F 61% 30.24 in 10.0 mi NNW 4.6 mph - N/A   Clear
2:54 AM 12.9 °F 3.8 °F 3.0 °F 65% 30.26 in 10.0 mi North 5.8 mph - N/A   Clear
3:54 AM 12.0 °F -0.4 °F 1.9 °F 64% 30.26 in 10.0 mi NNE 9.2 mph - N/A   Clear
4:54 AM 10.9 °F -3.4 °F 1.0 °F 64% 30.26 in 10.0 mi NNE 11.5 mph - N/A   Clear
5:54 AM 10.0 °F -0.9 °F 1.0 °F 67% 30.27 in 10.0 mi NE 6.9 mph - N/A   Clear
6:54 AM 8.1 °F -3.2 °F -0.0 °F 70% 30.27 in 10.0 mi NE 6.9 mph - N/A   Clear
7:54 AM 9.0 °F -0.9 °F -0.0 °F 67% 30.30 in 10.0 mi NE 5.8 mph - N/A   Clear
8:54 AM 12.0 °F 0.5 °F 1.0 °F 61% 30.32 in 10.0 mi East 8.1 mph - N/A   Clear
9:54 AM 12.9 °F -1.6 °F 3.0 °F 65% 30.34 in 10.0 mi East 12.7 mph - N/A   Clear
10:54 AM 15.1 °F 1.8 °F 3.9 °F 61% 30.33 in 10.0 mi ESE 11.5 mph - N/A   Clear
11:54 AM 18.0 °F 8.7 °F 3.9 °F 54% 30.31 in 10.0 mi Variable 6.9 mph - N/A   Clear
12:54 PM 19.9 °F 11.1 °F 5.0 °F 52% 30.29 in 10.0 mi SE 6.9 mph 18.4 mph N/A   Clear
1:54 PM 21.9 °F 13.4 °F 6.1 °F 51% 30.25 in 10.0 mi East 6.9 mph - N/A   Clear
2:54 PM 24.1 °F 13.1 °F 8.1 °F 51% 30.22 in 10.0 mi ESE 11.5 mph - N/A   Clear
3:54 PM 25.0 °F 14.2 °F 9.0 °F 51% 30.20 in 10.0 mi ESE 11.5 mph 20.7 mph N/A   Clear
4:54 PM 25.0 °F 15.5 °F 10.0 °F 53% 30.18 in 10.0 mi SE 9.2 mph 19.6 mph N/A   Partly Cloudy
5:54 PM 25.0 °F 13.6 °F 10.0 °F 53% 30.15 in 10.0 mi ESE 12.7 mph - N/A   Clear
6:54 PM 21.9 °F 11.7 °F 10.0 °F 60% 30.15 in 10.0 mi East 9.2 mph - N/A   Clear
7:54 PM 21.0 °F 12.4 °F 10.0 °F 63% 30.15 in 10.0 mi ESE 6.9 mph - N/A   Clear
8:54 PM 19.9 °F 9.3 °F 10.9 °F 68% 30.14 in 10.0 mi ESE 9.2 mph - N/A   Clear
9:54 PM 19.0 °F 8.2 °F 10.0 °F 68% 30.12 in 10.0 mi ESE 9.2 mph - N/A   Clear
10:54 PM 18.0 °F 6.9 °F 10.0 °F 71% 30.09 in 10.0 mi ESE 9.2 mph - N/A   Clear
11:54 PM 17.1 °F 7.6 °F 10.0 °F 74% 30.06 in 10.0 mi East 6.9 mph - N/A   Clear